Time,TemperatureF,DewpointF,PressureIn,WindDirection,WindDirectionDegrees,WindSpeedMPH,WindSpeedGustMPH,Humidity,HourlyPrecipIn,Conditions,Clouds,dailyrainin,SoftwareType,DateUTC
2013-10-08 00:14:00,57.0,47.0,29.99,NW,312,0.0,0.0,70,0.00,,,0.68,,2013-10-08 04:14:00,
2013-10-08 00:23:00,57.0,47.0,29.99,NW,312,0.0,0.0,70,0.00,,,0.68,,2013-10-08 04:23:00,
2013-10-08 00:43:00,55.0,47.0,30.01,NW,312,0.0,0.0,75,0.00,,,0.68,,2013-10-08 04:43:00,
2013-10-08 00:53:00,55.0,48.0,30.01,NW,312,0.0,0.0,76,0.00,,,0.68,,2013-10-08 04:53:00,
2013-10-08 01:13:00,54.0,48.0,30.01,NW,312,0.0,0.0,80,0.00,,,0.68,,2013-10-08 05:13:00,
2013-10-08 01:22:00,54.0,48.0,30.02,NW,312,0.0,0.0,81,0.00,,,0.68,,2013-10-08 05:22:00,
2013-10-08 01:42:00,53.0,48.0,30.03,NW,312,0.0,0.0,84,0.00,,,0.68,,2013-10-08 05:42:00,
2013-10-08 01:53:00,53.0,49.0,30.04,NW,312,0.0,0.0,85,0.00,,,0.68,,2013-10-08 05:53:00,
2013-10-08 02:12:00,52.0,49.0,30.05,NW,312,0.0,0.0,88,0.00,,,0.68,,2013-10-08 06:12:00,
2013-10-08 02:22:00,51.0,48.0,30.06,NW,312,0.0,0.0,90,0.00,,,0.68,,2013-10-08 06:22:00,
2013-10-08 02:52:00,50.0,48.0,30.07,NW,312,0.0,0.0,92,0.00,,,0.68,,2013-10-08 06:52:00,
2013-10-08 03:11:00,50.0,48.0,30.07,NW,312,0.0,0.0,93,0.00,,,0.68,,2013-10-08 07:11:00,
2013-10-08 03:21:00,49.0,47.0,30.07,NW,312,0.0,0.0,94,0.00,,,0.68,,2013-10-08 07:21:00,
2013-10-08 03:42:00,49.0,48.0,30.08,NW,312,0.0,0.0,95,0.00,,,0.68,,2013-10-08 07:42:00,
2013-10-08 03:52:00,49.0,48.0,30.08,NW,312,0.0,0.0,95,0.00,,,0.68,,2013-10-08 07:52:00,
2013-10-08 04:12:00,49.0,48.0,30.09,NW,312,0.0,0.0,95,0.00,,,0.68,,2013-10-08 08:12:00,
2013-10-08 04:22:00,49.0,48.0,30.09,NW,312,0.0,0.0,95,0.00,,,0.68,,2013-10-08 08:22:00,
2013-10-08 04:42:00,48.0,47.0,30.10,NW,312,0.0,0.0,95,0.00,,,0.68,,2013-10-08 08:42:00,
2013-10-08 04:52:00,48.0,47.0,30.11,NW,312,0.0,0.0,95,0.00,,,0.68,,2013-10-08 08:52:00,
2013-10-08 05:12:00,48.0,47.0,30.12,NW,312,0.0,0.0,96,0.00,,,0.68,,2013-10-08 09:12:00,
2013-10-08 05:22:00,48.0,47.0,30.13,NW,312,0.0,0.0,96,0.00,,,0.68,,2013-10-08 09:22:00,
2013-10-08 05:43:00,48.0,47.0,30.14,NW,312,0.0,0.0,96,0.00,,,0.68,,2013-10-08 09:43:00,
2013-10-08 05:53:00,48.0,47.0,30.15,NW,312,0.0,0.0,97,0.00,,,0.68,,2013-10-08 09:53:00,
2013-10-08 06:12:00,47.0,46.0,30.15,NW,312,0.0,0.0,97,0.00,,,0.68,,2013-10-08 10:12:00,
2013-10-08 06:23:00,47.0,46.0,30.15,NW,312,0.0,0.0,97,0.00,,,0.68,,2013-10-08 10:23:00,
2013-10-08 06:42:00,47.0,46.0,30.15,NW,312,0.0,0.0,97,0.00,,,0.68,,2013-10-08 10:42:00,
2013-10-08 06:53:00,47.0,46.0,30.15,NW,312,0.0,0.0,97,0.00,,,0.68,,2013-10-08 10:53:00,
2013-10-08 07:12:00,47.0,46.0,30.17,NW,312,0.0,0.0,97,0.00,,,0.68,,2013-10-08 11:12:00,
2013-10-08 07:22:00,47.0,46.0,30.17,NW,312,0.0,0.0,97,0.00,,,0.68,,2013-10-08 11:22:00,
2013-10-08 07:42:00,47.0,46.0,30.18,NW,312,0.0,0.0,97,0.00,,,0.68,,2013-10-08 11:42:00,
2013-10-08 07:52:00,47.0,46.0,30.19,NW,312,0.0,0.0,97,0.00,,,0.68,,2013-10-08 11:52:00,
2013-10-08 08:12:00,47.0,46.0,30.20,NW,312,0.0,0.0,97,0.00,,,0.68,,2013-10-08 12:12:00,
2013-10-08 08:22:00,47.0,46.0,30.20,NW,312,0.0,0.0,98,0.00,,,0.68,,2013-10-08 12:22:00,
2013-10-08 08:42:00,49.0,48.0,30.22,NW,312,0.0,0.0,97,0.00,,,0.68,,2013-10-08 12:42:00,
2013-10-08 08:52:00,50.0,49.0,30.22,NW,312,0.0,0.0,95,0.00,,,0.68,,2013-10-08 12:52:00,
2013-10-08 09:12:00,52.0,47.0,30.24,NW,312,0.0,0.0,84,0.00,,,0.68,,2013-10-08 13:12:00,
2013-10-08 09:22:00,53.0,47.0,30.24,NW,312,0.0,0.0,81,0.00,,,0.68,,2013-10-08 13:22:00,
2013-10-08 09:42:00,55.0,47.0,30.24,NW,312,0.0,0.0,74,0.00,,,0.68,,2013-10-08 13:42:00,
2013-10-08 09:52:00,56.0,46.0,30.24,NW,312,0.0,0.0,69,0.00,,,0.68,,2013-10-08 13:52:00,
2013-10-08 10:11:00,57.0,46.0,30.25,NW,312,0.0,0.0,67,0.00,,,0.68,,2013-10-08 14:11:00,
2013-10-08 10:22:00,57.0,45.0,30.25,NW,312,0.0,0.0,65,0.00,,,0.68,,2013-10-08 14:22:00,
2013-10-08 10:42:00,58.0,45.0,30.25,NW,312,0.0,0.0,61,0.00,,,0.68,,2013-10-08 14:42:00,
2013-10-08 10:52:00,59.0,45.0,30.25,NW,312,0.0,0.0,59,0.00,,,0.68,,2013-10-08 14:52:00,
2013-10-08 11:11:00,60.0,44.0,30.26,NW,312,0.0,0.0,56,0.00,,,0.66,,2013-10-08 15:11:00,
2013-10-08 11:22:00,61.0,46.0,30.25,NW,312,0.0,0.0,57,0.00,,,0.64,,2013-10-08 15:22:00,
2013-10-08 11:44:00,63.0,46.0,30.26,NW,312,0.0,0.0,53,0.00,,,0.52,,2013-10-08 15:44:00,
2013-10-08 11:53:00,64.0,45.0,30.25,NW,312,0.0,0.0,51,0.00,,,0.49,,2013-10-08 15:53:00,
2013-10-08 12:13:00,65.0,46.0,30.25,NW,312,0.0,0.0,51,0.00,,,0.44,,2013-10-08 16:13:00,
2013-10-08 12:23:00,65.0,46.0,30.26,NW,312,0.0,0.0,51,0.00,,,0.44,,2013-10-08 16:23:00,
2013-10-08 12:42:00,65.0,45.0,30.26,NW,312,0.0,0.0,49,0.00,,,0.44,,2013-10-08 16:42:00,
2013-10-08 12:53:00,65.0,47.0,30.25,NW,312,0.0,0.0,52,0.00,,,0.43,,2013-10-08 16:53:00,
2013-10-08 13:12:00,66.0,45.0,30.24,NW,312,0.0,0.0,46,0.00,,,0.43,,2013-10-08 17:12:00,
2013-10-08 13:23:00,66.0,45.0,30.24,NW,312,0.0,0.0,47,0.00,,,0.43,,2013-10-08 17:23:00,
2013-10-08 13:42:00,66.0,45.0,30.23,NW,312,0.0,0.0,46,0.00,,,0.43,,2013-10-08 17:42:00,
2013-10-08 13:52:00,67.0,45.0,30.23,NW,312,0.0,0.0,45,0.00,,,0.40,,2013-10-08 17:52:00,
2013-10-08 14:11:00,67.0,46.0,30.23,NW,312,0.0,0.0,46,0.00,,,0.40,,2013-10-08 18:11:00,
2013-10-08 14:22:00,67.0,44.0,30.23,NW,312,0.0,0.0,43,0.00,,,0.40,,2013-10-08 18:22:00,
2013-10-08 14:42:00,68.0,46.0,30.22,NW,312,0.0,0.0,45,0.00,,,0.39,,2013-10-08 18:42:00,
2013-10-08 14:52:00,68.0,46.0,30.23,NW,312,0.0,0.0,46,0.00,,,0.39,,2013-10-08 18:52:00,
2013-10-08 15:11:00,68.0,46.0,30.24,NW,312,0.0,0.0,45,0.00,,,0.38,,2013-10-08 19:11:00,
2013-10-08 15:22:00,69.0,48.0,30.24,NW,312,0.0,0.0,47,0.00,,,0.17,,2013-10-08 19:22:00,
2013-10-08 15:42:00,68.0,47.0,30.24,NW,312,0.0,0.0,47,0.00,,,0.08,,2013-10-08 19:42:00,
2013-10-08 15:52:00,67.0,47.0,30.25,NW,312,0.0,0.0,48,0.00,,,0.08,,2013-10-08 19:52:00,
2013-10-08 16:12:00,67.0,47.0,30.25,NW,312,0.0,0.0,48,0.00,,,0.08,,2013-10-08 20:12:00,
2013-10-08 16:22:00,66.0,47.0,30.25,NW,312,0.0,0.0,51,0.00,,,0.05,,2013-10-08 20:22:00,
2013-10-08 16:42:00,66.0,47.0,30.24,NW,312,0.0,0.0,50,0.00,,,0.02,,2013-10-08 20:42:00,
2013-10-08 16:52:00,65.0,47.0,30.25,NW,312,0.0,0.0,53,0.00,,,0.01,,2013-10-08 20:52:00,
2013-10-08 17:12:00,65.0,47.0,30.24,NW,312,0.0,0.0,52,0.00,,,0.01,,2013-10-08 21:12:00,
2013-10-08 17:22:00,65.0,47.0,30.24,NW,312,0.0,0.0,53,0.00,,,0.01,,2013-10-08 21:22:00,
2013-10-08 17:44:00,65.0,48.0,30.25,NW,312,0.0,0.0,55,0.00,,,0.01,,2013-10-08 21:44:00,
2013-10-08 17:54:00,64.0,47.0,30.25,NW,312,0.0,0.0,54,0.00,,,0.00,,2013-10-08 21:54:00,
2013-10-08 18:13:00,63.0,48.0,30.26,NW,312,0.0,0.0,59,0.00,,,0.00,,2013-10-08 22:13:00,
2013-10-08 18:24:00,62.0,48.0,30.26,NW,312,0.0,0.0,61,0.00,,,0.00,,2013-10-08 22:24:00,
2013-10-08 18:47:00,60.0,48.0,30.27,NW,312,0.0,0.0,64,0.00,,,0.00,,2013-10-08 22:47:00,
2013-10-08 18:55:00,60.0,49.0,30.28,NW,312,0.0,0.0,67,0.00,,,0.00,,2013-10-08 22:55:00,
2013-10-08 19:12:00,58.0,50.0,30.29,NW,312,0.0,0.0,74,0.00,,,0.00,,2013-10-08 23:12:00,
2013-10-08 19:23:00,57.0,50.0,30.29,NW,312,0.0,0.0,77,0.00,,,0.00,,2013-10-08 23:23:00,
2013-10-08 19:52:00,55.0,50.0,30.29,NW,312,0.0,0.0,82,0.00,,,0.00,,2013-10-08 23:52:00,
2013-10-08 20:12:00,54.0,50.0,30.30,NW,312,0.0,0.0,85,0.00,,,0.00,,2013-10-09 00:12:00,
2013-10-08 20:22:00,54.0,50.0,30.30,NW,312,0.0,0.0,85,0.00,,,0.00,,2013-10-09 00:22:00,
2013-10-08 20:43:00,53.0,50.0,30.31,NW,312,0.0,0.0,88,0.00,,,0.00,,2013-10-09 00:43:00,
2013-10-08 20:52:00,53.0,50.0,30.31,NW,312,0.0,0.0,89,0.00,,,0.00,,2013-10-09 00:52:00,
2013-10-08 21:12:00,52.0,49.0,30.31,NW,312,0.0,0.0,91,0.00,,,0.00,,2013-10-09 01:12:00,
2013-10-08 21:22:00,52.0,49.0,30.32,NW,312,0.0,0.0,91,0.00,,,0.00,,2013-10-09 01:22:00,
2013-10-08 21:43:00,51.0,48.0,30.32,NW,312,0.0,0.0,91,0.00,,,0.00,,2013-10-09 01:43:00,
2013-10-08 21:52:00,51.0,49.0,30.32,NW,312,0.0,0.0,92,0.00,,,0.00,,2013-10-09 01:52:00,
2013-10-08 22:12:00,51.0,49.0,30.32,NW,312,0.0,0.0,92,0.00,,,0.00,,2013-10-09 02:12:00,
2013-10-08 22:23:00,50.0,48.0,30.33,NW,312,0.0,0.0,92,0.00,,,0.00,,2013-10-09 02:23:00,
2013-10-08 22:42:00,50.0,48.0,30.34,NW,312,0.0,0.0,93,0.00,,,0.00,,2013-10-09 02:42:00,
2013-10-08 22:52:00,50.0,48.0,30.34,NW,312,0.0,0.0,93,0.00,,,0.00,,2013-10-09 02:52:00,
2013-10-08 23:11:00,50.0,48.0,30.34,NW,312,0.0,0.0,93,0.00,,,0.00,,2013-10-09 03:11:00,
2013-10-08 23:23:00,50.0,48.0,30.35,NW,312,0.0,0.0,94,0.00,,,0.00,,2013-10-09 03:23:00,
2013-10-08 23:44:00,49.0,47.0,30.35,NW,312,0.0,0.0,94,0.00,,,0.00,,2013-10-09 03:44:00,
2013-10-08 23:54:00,49.0,47.0,30.35,NW,312,0.0,0.0,94,0.00,,,0.00,,2013-10-09 03:54:00,